Location: ??
(35.1714°N, 128.2806°E)
Time: 15:39:03
(UTC+00:00)

Cosmos 2251 Rocket - Pass Details

Date: 29 October 2020
Orbit: 766 x 791 km, 74.0° (Epoch: 01 December)

Event Time Altitude Azimuth Distance (km) Brightness Sun altitude
Exits shadow 20:16:59 31° 250° (WSW) 1,345 4.3 -18.7°
Maximum altitude 20:18:44 41° 292° (WNW) 1,135 3.9 -18.4°
Drops below altitude 10° 20:23:46 10° 2° (N) 2,347 6.0 -17.4°
Sets 20:26:18 0° 10° (N) 3,276 6.8 -16.9°
